Whiteman AFB, MO

6:27 PM CST on December 07, 2019 (GMT -0600)
Whiteman Air Force Base

Weather History for KSZL - May, 2019

Change the Weather History Date:

Tuesday, May 21, 2019

  Actual Average Record
Temperature  
Mean Temperature 57 °F -  
Max Temperature 66 °F 74 °F 86 °F (2014)
Min Temperature 48 °F 54 °F 44 °F (2002)
Degree Days  
Heating Degree Days 8    
Growing Degree Days 7 (Base 50)    
Moisture  
Dew Point 55 °F    
Average Humidity 99    
Maximum Humidity 100    
Minimum Humidity 87    
Precipitation  
Precipitation 1.23 in - - ()
Sea Level Pressure  
Sea Level Pressure 29.65 in    
Wind  
Wind Speed 12 mph (East)    
Max Wind Speed 16 mph    
Max Gust Speed 28 mph    
Visibility 7 miles    
Events Rain , Thunderstorm    
Averages and records for this station are not official NWS values.
T = Trace of Precipitation, MM = Missing Value Source: NWS Daily Summary

Daily Weather History Graph

Daily Weather History Graph

Search for Another Location

Airport or City:

Astronomy

May. 21, 2019 Rise Set
Actual Time 5:57 AM CDT 8:24 PM CDT
Civil Twilight 5:27 AM CDT 8:55 PM CDT
Nautical Twilight 4:49 AM CDT 9:32 PM CDT
Astronomical Twilight 4:07 AM CDT 10:14 PM CDT
Moon 11:20 PM CDT (5/21) 8:14 AM CDT (5/21)
Length of Visible Light 15h 28m
Length of Day
14h 27m
Waning Gibbous, 91% of the Moon is Illuminated
May 21
Waning Gibbous
May 26
Last Quarter
Jun 3
New
Jun 10
First Quarter
Jun 17
Full

Hourly Weather History & Observations

Time (CDT) Temp. Dew Point Humidity Pressure Visibility Wind Dir Wind Speed Gust Speed Precip Events Conditions
12:58 AM 48.7 °F 48.7 °F 100% 29.91 in 3.0 mi NE 12.7 mph - 0.14 in Rain Rain
1:01 AM 48.2 °F 48.2 °F 100% 29.90 in 3.0 mi NE 11.5 mph - N/A Rain , Thunderstorm Thunderstorms and Rain
1:39 AM 48.2 °F 48.2 °F 100% 29.87 in 4.0 mi ENE 15.0 mph - N/A Rain Rain
1:45 AM 48.2 °F 48.2 °F 100% 29.87 in 3.0 mi ENE 13.8 mph - N/A Rain , Thunderstorm Rain
1:59 AM 48.2 °F 48.2 °F 100% 29.86 in 3.0 mi ENE 15.0 mph 20.7 mph 0.20 in Rain , Thunderstorm Rain
2:05 AM 48.2 °F 48.2 °F 100% 29.85 in 3.0 mi ENE 16.1 mph 23.0 mph N/A Rain Rain
2:57 AM 48.7 °F 48.7 °F 100% 29.79 in 5.0 mi East 16.1 mph 25.3 mph 0.13 in Rain Light Rain
3:57 AM 49.3 °F 49.3 °F 100% 29.80 in 10.0 mi East 12.7 mph 21.9 mph 0.04 in Rain Light Rain
4:29 AM 50.0 °F 50.0 °F 100% 29.79 in 10.0 mi East 8.1 mph 19.6 mph N/A   Overcast
4:56 AM 49.5 °F 49.5 °F 100% 29.76 in 10.0 mi East 12.7 mph 21.9 mph 0.01 in   Overcast
5:49 AM 50.0 °F 50.0 °F 100% 29.75 in 10.0 mi East 11.5 mph 18.4 mph N/A   Light Drizzle
5:56 AM 49.6 °F 49.6 °F 100% 29.74 in 10.0 mi East 11.5 mph 19.6 mph 0.00 in   Light Drizzle
6:01 AM 50.0 °F 50.0 °F 100% 29.72 in 10.0 mi East 11.5 mph 19.6 mph N/A   Overcast
6:21 AM 50.0 °F 50.0 °F 100% 29.73 in 10.0 mi East 11.5 mph 27.6 mph N/A   Light Drizzle
6:31 AM 50.0 °F 50.0 °F 100% 29.72 in 10.0 mi East 9.2 mph 18.4 mph N/A   Overcast
6:54 AM 50.0 °F 50.0 °F 100% 29.71 in 10.0 mi East 13.8 mph 19.6 mph N/A   Overcast
6:56 AM 50.2 °F 50.2 °F 100% 29.71 in 10.0 mi East 11.5 mph 19.6 mph 0.00 in   Overcast
7:21 AM 50.0 °F 50.0 °F 100% 29.70 in 10.0 mi East 13.8 mph 21.9 mph N/A   Overcast
7:56 AM 50.9 °F 50.9 °F 100% 29.70 in 3.0 mi East 12.7 mph 18.4 mph 0.00 in Rain Light Rain
8:37 AM 51.8 °F 51.8 °F 100% 29.68 in 2.0 mi East 9.2 mph - N/A   Light Drizzle
8:56 AM 52.2 °F 52.2 °F 100% 29.67 in 3.0 mi East 9.2 mph - 0.00 in   Overcast
9:56 AM 54.1 °F 54.1 °F 100% 29.61 in 5.0 mi East 11.5 mph 21.9 mph 0.01 in   Overcast
10:29 AM 57.2 °F 57.2 °F 100% 29.60 in 10.0 mi East 12.7 mph 19.6 mph N/A   Light Drizzle
10:37 AM 57.2 °F 57.2 °F 100% 29.60 in 10.0 mi East 13.8 mph 19.6 mph N/A   Overcast
10:52 AM 57.2 °F 57.2 °F 100% 29.58 in 10.0 mi East 12.7 mph 23.0 mph N/A Rain Light Rain
10:56 AM 57.6 °F 57.6 °F 100% 29.59 in 6.0 mi East 12.7 mph 18.4 mph 0.00 in Rain Light Rain
11:11 AM 57.2 °F 57.2 °F 100% 29.60 in 6.0 mi East 9.2 mph 17.3 mph N/A Rain Light Rain
11:26 AM 59.0 °F 59.0 °F 100% 29.59 in 3.0 mi East 6.9 mph - N/A Rain Rain
11:36 AM 59.0 °F 59.0 °F 100% 29.60 in 2.0 mi ESE 5.8 mph - N/A Rain Rain
11:41 AM 59.0 °F 59.0 °F 100% 29.62 in 1.5 mi WSW 11.5 mph - N/A Rain Heavy Rain
11:56 AM 57.6 °F 57.6 °F 100% 29.61 in 5.0 mi NNE 6.9 mph - 0.32 in Rain Rain
12:24 PM 57.2 °F 57.2 °F 100% 29.59 in 10.0 mi NNW 10.4 mph - N/A Rain Light Rain
12:30 PM 57.2 °F 57.2 °F 100% 29.59 in 6.0 mi NNW 8.1 mph - N/A   Light Drizzle
12:56 PM 57.0 °F 57.0 °F 100% 29.58 in 6.0 mi NNE 10.4 mph - 0.05 in Rain Light Rain
1:06 PM 57.2 °F 57.2 °F 100% 29.57 in 10.0 mi NE 8.1 mph - N/A Rain Light Rain
1:16 PM 57.2 °F 57.2 °F 100% 29.60 in 5.0 mi ENE 4.6 mph - N/A Rain Rain
1:56 PM 62.1 °F 62.1 °F 100% 29.51 in 6.0 mi East 9.2 mph - 0.12 in Rain Light Rain
2:17 PM 64.4 °F 64.4 °F 100% 29.49 in 8.0 mi East 10.4 mph 19.6 mph N/A Rain Light Rain
2:37 PM 64.4 °F 64.4 °F 100% 29.50 in 3.0 mi ESE 6.9 mph - N/A Rain Rain
3:05 PM 64.4 °F 64.4 °F 100% 29.53 in 3.0 mi SE 9.2 mph - N/A Rain Rain
3:59 PM 65.5 °F 65.5 °F 100% 29.53 in 10.0 mi SSW 12.7 mph - 0.16 in Rain Light Rain
4:08 PM 66.2 °F 66.2 °F 100% 29.55 in 10.0 mi South 12.7 mph - N/A Rain Light Rain
4:59 PM 63.3 °F 63.3 °F 100% 29.44 in 10.0 mi ESE 9.2 mph - 0.05 in Rain Light Rain
5:23 PM 62.6 °F 62.6 °F 100% 29.48 in 10.0 mi SE 9.2 mph - N/A   Mostly Cloudy
8:56 PM 61.2 °F 59.2 °F 93% 29.52 in 10.0 mi SSE 12.7 mph 19.6 mph N/A   Clear
9:56 PM 60.4 °F 57.7 °F 91% 29.53 in 10.0 mi SSE 12.7 mph 20.7 mph N/A   Clear
10:56 PM 59.9 °F 56.7 °F 89% 29.54 in 10.0 mi SSE 11.5 mph 20.7 mph N/A   Clear
11:56 PM 59.7 °F 55.8 °F 87% 29.54 in 10.0 mi South 13.8 mph 21.9 mph N/A   Clear